This is the latest recevied weather packets stored in our database for station/object KC8JWT. If no packets are shown the sender has not sent any weather packets the latest 10 day(s).
| Time | Temp. | Humidity | Pressure | Rain* | Wind** | Luminosity | Snow |
|---|---|---|---|---|---|---|---|
| 1777745206 | 13.89° C | 49% | 1016.1 hPa | 0 mm | - | 841 W/m² | - |
| 1777744904 | 14.44° C | 48% | 1016.4 hPa | 0 mm | - | 269 W/m² | - |
| 1777744603 | 15° C | 46% | 1015.9 hPa | 0 mm | - | 612 W/m² | - |
| 1777744299 | 15° C | 49% | 1016.3 hPa | 0 mm | - | 816 W/m² | - |
| 1777743996 | 14.44° C | 46% | 1016.4 hPa | 0 mm | - | 856 W/m² | - |
| 1777743692 | 14.44° C | 49% | 1016.3 hPa | 0 mm | - | 845 W/m² | - |
| 1777743390 | 14.44° C | 49% | 1016.3 hPa | 0 mm | - | 807 W/m² | - |
| 1777743088 | 12.78° C | 52% | 1016.3 hPa | 0 mm | - | 848 W/m² | - |
| 1777742785 | 13.89° C | 49% | 1016.4 hPa | 0 mm | - | 559 W/m² | - |
| 1777742481 | 13.33° C | 48% | 1016.3 hPa | 0 mm | - | 957 W/m² | - |
| 1777742177 | 14.44° C | 48% | 1016 hPa | 0 mm | - | 312 W/m² | - |
| 1777741874 | 13.33° C | 53% | 1016.3 hPa | 0 mm | - | 984 W/m² | - |
| 1777741571 | 14.44° C | 46% | 1016.4 hPa | 0 mm | - | 262 W/m² | - |
| 1777741268 | 13.89° C | 51% | 1016.4 hPa | 0 mm | - | 934 W/m² | - |
| 1777740964 | 14.44° C | 49% | 1016.6 hPa | 0 mm | - | 995 W/m² | - |
| 1777740661 | 13.89° C | 47% | 1016.6 hPa | 0 mm | - | 1039 W/m² | - |
| 1777740357 | 14.44° C | 51% | 1016.6 hPa | 0 mm | - | 1014 W/m² | - |
| 1777740054 | 13.89° C | 50% | 1016.5 hPa | 0 mm | - | 1039 W/m² | - |
| 1777739750 | 13.89° C | 49% | 1016.6 hPa | 0 mm | - | 788 W/m² | - |
| 1777739447 | 13.33° C | 53% | 1016.6 hPa | 0 mm | - | 238 W/m² | - |
| 1777739144 | 13.33° C | 52% | 1016.7 hPa | 0 mm | - | 905 W/m² | - |
| 1777738841 | 13.89° C | 52% | 1016.9 hPa | 0 mm | - | 1079 W/m² | - |
| 1777738538 | 12.78° C | 54% | 1016.9 hPa | 0 mm | - | 983 W/m² | - |
| 1777738236 | 11.67° C | 53% | 1016.9 hPa | 0 mm | - | 243 W/m² | - |
| 1777737934 | 12.22° C | 56% | 1017 hPa | 0 mm | - | 285 W/m² | - |
* Rain latest hour (hover to see other rain measurements)
** Current wind speed in m/s (hover to see current wind gust speed)